Weather History for Gilze-Rijen, Netherlands

Change the Weather History Date:

Tuesday, August 19, 2014

  Actual Average Record
Temperature  
Mean Temperature 56 °F -  
Max Temperature 63 °F 68 °F 95 °F (2012)
Min Temperature 48 °F 51 °F 46 °F (1998)
Degree Days  
Heating Degree Days 10    
Growing Degree Days 6 (Base 50)    
Moisture  
Dew Point 51 °F    
Average Humidity 87    
Maximum Humidity 100    
Minimum Humidity 51    
Precipitation  
Precipitation 0.08 in - - ()
Sea Level Pressure  
Sea Level Pressure 29.83 in    
Wind  
Wind Speed 7 mph ()    
Max Wind Speed 21 mph    
Max Gust Speed 29 mph    
Visibility 6.0 miles    
Events Rain , Thunderstorm    
Averages and records for this station are not official NWS values.
T = Trace of Precipitation, MM = Missing Value Source: Averaged Metar Reports

Daily Weather History Graph

Daily Weather History Graph

Search for Another Location

Airport:

Trip Planner

Search our weather history database for the weather conditions in past years. The results will help you decide how hot, cold, wet, or windy it might be!

Date:

Astronomy

Aug. 19, 2014 Rise Set
Actual Time 6:31 AM CEST 8:55 PM CEST
Civil Twilight 5:54 AM CEST 9:31 PM CEST
Nautical Twilight 5:07 AM CEST 10:18 PM CEST
Astronomical Twilight 4:12 AM CEST 11:12 PM CEST
Moon 1:00 AM CEST (8/19) 4:50 PM CEST (8/19)
Length of Visible Light 15h 37m
Length of Day
14h 23m
Waning Crescent, 31% of the Moon is Illuminated
Aug 19
Waning Crescent
Aug 25
New
Sep 2
First Quarter
Sep 9
Full
Sep 16
Last Quarter

Hourly Weather History & Observations

Time (CEST) Temp. Dew Point Humidity Pressure Visibility Wind Dir Wind Speed Gust Speed Precip Events Conditions
12:00 AM 53 °F 51 °F 92% 29.84 in 10 mi SW 2.2 mph - -   Partly Cloudy
12:04 AM 53.6 °F 51.8 °F 94% 29.83 in 6.2 mi SW 2.3 mph - N/A   Overcast
12:25 AM 53.6 °F 51.8 °F 94% 29.83 in 6.2 mi SW 3.5 mph - N/A   Overcast
12:55 AM 53.6 °F 51.8 °F 94% 29.83 in 6.2 mi SW 5.8 mph - N/A   Overcast
1:00 AM 53 °F 53 °F 98% 29.84 in 7 mi SW 4.5 mph - -   Partly Cloudy
1:25 AM 53.6 °F 53.6 °F 100% 29.83 in 6.2 mi SW 4.6 mph - N/A   Overcast
1:55 AM 53.6 °F 53.6 °F 100% 29.80 in 6.2 mi SSW 4.6 mph - N/A   Overcast
2:00 AM 54 °F 53 °F 95% 29.83 in 7 mi SSW 4.5 mph - -   Partly Cloudy
2:25 AM 53.6 °F 53.6 °F 100% 29.80 in 5.6 mi SSW 4.6 mph - N/A   Drizzle
2:37 AM 53.6 °F 53.6 °F 100% 29.80 in 4.3 mi South 3.5 mph - N/A   Light Drizzle
2:45 AM 53.6 °F 53.6 °F 100% 29.80 in 5.0 mi SSW 2.3 mph - N/A   Overcast
2:55 AM 53.6 °F 53.6 °F 100% 29.80 in 5.0 mi East 1.2 mph - N/A   Overcast
3:00 AM 54 °F 53 °F 96% 29.81 in 5 mi SE 2.2 mph - - Rain Light Rain Showers
3:04 AM 53.6 °F 53.6 °F 100% 29.80 in 4.3 mi SSE 2.3 mph - N/A Rain Light Rain
3:10 AM 53.6 °F 53.6 °F 100% 29.80 in 5.0 mi South 2.3 mph - N/A Rain Light Rain
3:25 AM 53.6 °F 53.6 °F 100% 29.80 in 5.0 mi South 4.6 mph - N/A   Mostly Cloudy
3:39 AM 53.6 °F 53.6 °F 100% 29.77 in 5.0 mi South 4.6 mph - N/A   Overcast
3:55 AM 55.4 °F 53.6 °F 94% 29.77 in 5.0 mi South 6.9 mph - N/A Thunderstorm Overcast
4:00 AM 54 °F 53 °F 97% 29.81 in 5 mi WSW 6.7 mph - - Rain Light Rain Showers
4:03 AM 55.4 °F 53.6 °F 94% 29.77 in 3.7 mi WSW 8.1 mph - N/A Rain , Thunderstorm Light Thunderstorms and Rain
4:12 AM 53.6 °F 53.6 °F 100% 29.80 in - NW 12.7 mph - N/A Rain , Thunderstorm Heavy Thunderstorms and Rain
4:16 AM 53.6 °F 53.6 °F 100% 29.80 in 3.7 mi NW 15.0 mph - N/A Rain , Thunderstorm Heavy Thunderstorms and Rain
4:20 AM 53.6 °F 51.8 °F 94% 29.80 in 3.1 mi NW 16.1 mph - N/A Rain , Thunderstorm Heavy Thunderstorms and Rain
4:25 AM 53.6 °F 51.8 °F 94% 29.80 in 3.1 mi NW 12.7 mph - N/A Rain , Thunderstorm Heavy Thunderstorms and Rain
4:28 AM 51.8 °F 51.8 °F 100% 29.80 in 5.6 mi NW 10.4 mph - N/A Rain Rain
4:33 AM 51.8 °F 51.8 °F 100% 29.80 in 5.0 mi WNW 8.1 mph - N/A Rain Rain Showers
4:37 AM 51.8 °F 51.8 °F 100% 29.80 in 6.2 mi NW 4.6 mph - N/A Rain Rain
4:45 AM 51.8 °F 51.8 °F 100% 29.80 in 6.2 mi WNW 3.5 mph - N/A Rain Light Rain
4:55 AM 51.8 °F 51.8 °F 100% 29.80 in 6.2 mi SSW 3.5 mph - N/A Rain Light Rain Showers
5:00 AM 52 °F 52 °F 98% 29.79 in 9 mi South 4.5 mph - - Rain Light Rain
5:25 AM 51.8 °F 51.8 °F 100% 29.77 in 6.2 mi SSW 4.6 mph - N/A Rain Light Rain
5:55 AM 53.6 °F 51.8 °F 94% 29.77 in 6.2 mi SW 3.5 mph - N/A   Overcast
6:00 AM 53 °F 52 °F 94% 29.79 in 7 mi SSW 4.5 mph - - Rain Rain
6:25 AM 53.6 °F 51.8 °F 94% 29.77 in 5.6 mi South 3.5 mph - N/A   Overcast
6:35 AM 53.6 °F 51.8 °F 94% 29.77 in 3.7 mi South 3.5 mph - N/A   Overcast
6:55 AM 53.6 °F 53.6 °F 100% 29.77 in 3.1 mi SSW 5.8 mph - N/A   Mostly Cloudy
7:00 AM 54 °F 53 °F 95% 29.78 in 3 mi SW 4.5 mph - - Rain Rain
7:03 AM 53.6 °F 53.6 °F 100% 29.77 in 3.1 mi SW 5.8 mph - N/A   Mostly Cloudy
7:11 AM 53.6 °F 53.6 °F 100% 29.77 in 3.1 mi SW 4.6 mph - N/A   Mostly Cloudy
7:18 AM 53.6 °F 53.6 °F 100% 29.77 in - SW 5.8 mph - N/A   Overcast
7:25 AM 53.6 °F 53.6 °F 100% 29.77 in 3.1 mi SW 5.8 mph - N/A   Mostly Cloudy
7:37 AM 53.6 °F 53.6 °F 100% 29.77 in 3.1 mi SW 5.8 mph - N/A   Overcast
7:42 AM 53.6 °F 53.6 °F 100% 29.77 in 3.1 mi SW 5.8 mph - N/A   Overcast
7:55 AM 55.4 °F 53.6 °F 94% 29.77 in 3.1 mi SW 5.8 mph - N/A   Overcast
8:00 AM 55 °F 54 °F 94% 29.79 in 3 mi SW 6.7 mph - -   Mist
8:25 AM 55.4 °F 53.6 °F 94% 29.77 in 3.1 mi WSW 6.9 mph - N/A Rain Light Rain
8:29 AM 55.4 °F 53.6 °F 94% 29.77 in 3.7 mi WSW 8.1 mph - N/A Rain Light Rain Showers
8:31 AM 55.4 °F 53.6 °F 94% 29.77 in 3.7 mi WSW 8.1 mph - N/A Rain Light Rain Showers
8:36 AM 55.4 °F 53.6 °F 94% 29.77 in 5.0 mi WSW 8.1 mph - N/A Rain Light Rain Showers
8:40 AM 55.4 °F 53.6 °F 94% 29.77 in 4.3 mi WSW 8.1 mph - N/A Rain Light Rain
8:46 AM 55.4 °F 53.6 °F 94% 29.77 in 5.6 mi SW 8.1 mph - N/A Rain Light Rain Showers
8:55 AM 55.4 °F 53.6 °F 94% 29.77 in 6.2 mi SW 6.9 mph - N/A Rain Light Rain
9:00 AM 55 °F 53 °F 92% 29.79 in 7 mi SW 6.7 mph - - Rain Rain
9:06 AM 55.4 °F 53.6 °F 94% 29.77 in 6.2 mi SW 5.8 mph - N/A   Mostly Cloudy
9:25 AM 55.4 °F 53.6 °F 94% 29.77 in 6.2 mi SW 5.8 mph - N/A   Overcast
9:55 AM 57.2 °F 55.4 °F 94% 29.80 in 6.2 mi SW 8.1 mph - N/A   Mostly Cloudy
10:00 AM 57 °F 55 °F 89% 29.80 in 7 mi SW 8.9 mph - -   Partly Cloudy
10:09 AM 57.2 °F 55.4 °F 94% 29.80 in 6.2 mi SW 8.1 mph - N/A   Mostly Cloudy
10:13 AM 57.2 °F 55.4 °F 94% 29.80 in 6.2 mi SW 8.1 mph - N/A   Mostly Cloudy
10:16 AM 57.2 °F 55.4 °F 94% 29.80 in 6.2 mi SW 8.1 mph - N/A   Mostly Cloudy
10:21 AM 57.2 °F 55.4 °F 94% 29.80 in 6.2 mi WSW 8.1 mph - N/A   Mostly Cloudy
10:25 AM 57.2 °F 55.4 °F 94% 29.80 in 6.2 mi WSW 9.2 mph - N/A Rain Light Rain
10:26 AM 57.2 °F 53.6 °F 88% 29.80 in 6.2 mi WSW 9.2 mph - N/A Rain Light Rain
10:30 AM 57.2 °F 53.6 °F 88% 29.80 in 6.2 mi WSW 9.2 mph - N/A Rain Drizzle
10:55 AM 57.2 °F 53.6 °F 88% 29.80 in 6.2 mi WSW 8.1 mph - N/A   Mostly Cloudy
11:00 AM 57 °F 53 °F 81% 29.81 in 16 mi WSW 8.9 mph - - Rain Rain
11:25 AM 59.0 °F 51.8 °F 77% 29.80 in 6.2 mi WSW 9.2 mph - N/A   Overcast
11:38 AM 59.0 °F 53.6 °F 82% 29.80 in 6.2 mi WSW 11.5 mph - N/A   Mostly Cloudy
11:51 AM 60.8 °F 53.6 °F 77% 29.80 in 6.2 mi WSW 11.5 mph - N/A   Mostly Cloudy
11:55 AM 59.0 °F 51.8 °F 77% 29.80 in 6.2 mi WSW 11.5 mph - N/A   Mostly Cloudy
11:57 AM 59.0 °F 51.8 °F 77% 29.80 in 6.2 mi WSW 11.5 mph - N/A   Mostly Cloudy
12:00 PM 59 °F 51 °F 67% 29.82 in 22 mi WSW 13.4 mph - -   Partly Cloudy
12:07 PM 59.0 °F 51.8 °F 77% 29.80 in 6.2 mi West 12.7 mph - N/A Rain Light Rain
12:25 PM 60.8 °F 51.8 °F 72% 29.80 in 6.2 mi WNW 12.7 mph - N/A   Mostly Cloudy
12:55 PM 60.8 °F 48.2 °F 63% 29.80 in 6.2 mi West 12.7 mph - N/A   Mostly Cloudy
1:00 PM 60 °F 47 °F 53% 29.83 in 19 mi West 15.7 mph - - Rain Rain
1:19 PM 59.0 °F 48.2 °F 67% 29.83 in 6.2 mi West 15.0 mph - N/A Rain Light Rain
1:25 PM 57.2 °F 48.2 °F 72% 29.83 in 6.2 mi West 13.8 mph - N/A Rain Light Rain
1:41 PM 60.8 °F 46.4 °F 59% 29.83 in 6.2 mi West 16.1 mph 27.6 mph N/A   Mostly Cloudy
1:55 PM 62.6 °F 48.2 °F 59% 29.83 in 6.2 mi West 17.3 mph - N/A   Scattered Clouds
2:00 PM 60 °F 47 °F 51% 29.83 in 19 mi West 15.7 mph - - Rain Rain
2:25 PM 59.0 °F 50.0 °F 72% 29.83 in 6.2 mi WSW 12.7 mph - N/A   Mostly Cloudy
2:55 PM 59.0 °F 46.4 °F 63% 29.83 in 6.2 mi West 17.3 mph 28.8 mph N/A   Overcast
3:00 PM 58 °F 47 °F 56% 29.86 in 22 mi West 13.4 mph - - Rain Light Rain Showers
3:25 PM 57.2 °F 50.0 °F 77% 29.86 in 6.2 mi West 10.4 mph - N/A   Mostly Cloudy
3:55 PM 59.0 °F 46.4 °F 63% 29.86 in 6.2 mi West 13.8 mph - N/A   Mostly Cloudy
4:00 PM 60 °F 47 °F 52% 29.86 in 22 mi West 13.4 mph - - Rain Light Rain Showers
4:25 PM 57.2 °F 46.4 °F 67% 29.86 in 6.2 mi West 19.6 mph - N/A Rain Light Rain
4:55 PM 59.0 °F 46.4 °F 63% 29.86 in 6.2 mi West 17.3 mph 28.8 mph N/A   Scattered Clouds
5:00 PM 58 °F 46 °F 53% 29.88 in 28 mi West 17.9 mph - - Rain Rain
5:25 PM 57.2 °F 46.4 °F 67% 29.89 in 6.2 mi WNW 16.1 mph - N/A   Overcast
5:55 PM 59.0 °F 46.4 °F 63% 29.89 in 6.2 mi NW 15.0 mph - N/A   Mostly Cloudy
6:00 PM 56 °F 47 °F 64% 29.91 in 11 mi NW 17.9 mph - - Rain Light Rain Showers
6:12 PM 53.6 °F 48.2 °F 82% 29.89 in 4.3 mi WNW 20.7 mph - N/A Rain Light Rain Showers
6:20 PM 53.6 °F 48.2 °F 82% 29.92 in 6.2 mi West 12.7 mph 24.2 mph N/A Rain Light Rain
6:25 PM 53.6 °F 48.2 °F 82% 29.89 in 6.2 mi West 9.2 mph - N/A Rain Light Rain
6:37 PM 53.6 °F 48.2 °F 82% 29.89 in 6.2 mi West 6.9 mph - N/A   Mostly Cloudy
6:55 PM 53.6 °F 48.2 °F 82% 29.89 in 6.2 mi WSW 6.9 mph - N/A Rain Light Rain
7:00 PM 53 °F 49 °F 80% 29.91 in 25 mi WSW 6.7 mph - - Rain Light Rain
7:17 PM 53.6 °F 50.0 °F 88% 29.92 in 3.7 mi West 10.4 mph - N/A Rain Rain
7:18 PM 53.6 °F 50.0 °F 88% 29.92 in 6.2 mi West 9.2 mph 20.7 mph N/A Rain Rain Showers
7:25 PM 53.6 °F 48.2 °F 82% 29.89 in 6.2 mi West 8.1 mph - N/A   Mostly Cloudy
7:35 PM 53.6 °F 48.2 °F 82% 29.92 in 6.2 mi WSW 6.9 mph - N/A   Partly Cloudy
7:55 PM 53.6 °F 48.2 °F 82% 29.92 in 6.2 mi SW 4.6 mph - N/A   Mostly Cloudy
8:00 PM 54 °F 49 °F 76% 29.93 in 28 mi WSW 4.5 mph - - Rain Rain
8:25 PM 53.6 °F 48.2 °F 82% 29.92 in 6.2 mi WSW 4.6 mph - N/A   Unknown
8:55 PM 51.8 °F 48.2 °F 88% 29.92 in 6.2 mi SW 4.6 mph - N/A   Unknown
9:00 PM 51 °F 49 °F 89% 29.94 in 22 mi SW 6.7 mph - -   Scattered Clouds
9:25 PM 50.0 °F 48.2 °F 94% 29.92 in 6.2 mi SW 4.6 mph - N/A   Partly Cloudy
9:55 PM 50.0 °F 48.2 °F 94% 29.95 in 6.2 mi SW 4.6 mph - N/A   Scattered Clouds
10:00 PM 50 °F 48 °F 90% 29.95 in 25 mi SW 4.5 mph - -   Scattered Clouds
10:25 PM 50.0 °F 48.2 °F 94% 29.95 in 6.2 mi SW 5.8 mph - N/A   Unknown
10:55 PM 50.0 °F 46.4 °F 87% 29.95 in 6.2 mi SW 6.9 mph - N/A   Partly Cloudy
11:00 PM 49 °F 46 °F 87% 29.96 in 28 mi SW 6.7 mph - -   Scattered Clouds
11:21 PM 48.2 °F 46.4 °F 93% 29.95 in 6.2 mi SW 5.8 mph - N/A   Unknown
11:25 PM 48.2 °F 46.4 °F 93% 29.95 in 6.2 mi SW 5.8 mph - N/A   Partly Cloudy
11:55 PM 48.2 °F 46.4 °F 93% 29.95 in 6.2 mi SW 6.9 mph - N/A   Unknown